CW8164 Weather Reports


Display with metric or nautical units.
time (UTC)temp
F
wind
direction
speed
MPH
gust
MPH
rain 1hr
in
rain 24hr
in
rain mn
in
humidity
%
barometer
mb
20260509072405 54 194 0.0 0.0 0.00 0.00 0.00 80 1022.3
20260509071904 54 194 0.0 0.0 0.00 0.00 0.00 80 1022.3
20260509070404 55 194 0.0 0.0 0.00 0.00 0.00 78 1022.2
20260509065404 55 194 0.0 0.0 0.00 0.00 0.00 78 1022.2
20260509064904 56 194 0.0 0.0 0.00 0.00 0.00 77 1022.1
20260509064405 56 194 0.0 0.0 0.00 0.00 0.00 76 1022.1
20260509062904 56 194 0.0 0.0 0.00 0.00 0.00 75 1022.2
20260509061904 57 194 0.0 0.0 0.00 0.00 0.00 75 1022.1
20260509061404 57 229 0.0 0.0 0.00 0.00 0.00 74 1022.0
20260509060904 57 230 0.0 0.0 0.00 0.00 0.00 72 1021.9
20260509060405 58 234 0.0 0.0 0.00 0.00 0.00 71 1021.9
20260509055904 58 252 0.0 0.0 0.00 0.00 0.00 71 1021.9
20260509054904 58 253 0.0 0.0 0.00 0.00 0.00 71 1021.9
20260509054404 58 253 0.0 0.0 0.00 0.00 0.00 70 1021.9
20260509053904 58 253 0.0 0.0 0.00 0.00 0.00 70 1021.9
20260509053404 59 253 0.0 0.0 0.00 0.00 0.00 69 1022.0
20260509051905 59 221 0.0 0.0 0.00 0.00 0.00 70 1022.0
20260509051404 59 221 0.0 0.0 0.00 0.00 0.00 67 1022.0
20260509050904 59 221 0.0 0.0 0.00 0.00 0.00 67 1022.0
20260509050404 59 221 0.0 0.0 0.00 0.00 0.00 68 1021.9
20260509045904 59 146 0.0 0.0 0.00 0.00 0.00 68 1021.9
20260509045404 60 146 0.0 0.0 0.00 0.00 0.00 68 1021.9
20260509044904 60 146 0.0 0.0 0.00 0.00 0.00 67 1021.9
20260509044404 60 146 0.0 0.0 0.00 0.00 0.00 67 1021.8
20260509043904 60 146 0.0 2.0 0.00 0.00 0.00 66 1021.8
20260509043404 60 38 0.0 2.0 0.00 0.00 0.00 67 1021.7
20260509042904 60 267 0.0 2.0 0.00 0.00 0.00 66 1021.7
20260509042404 60 323 0.0 0.0 0.00 0.00 0.00 67 1021.7
20260509041404 60 294 0.0 0.0 0.00 0.00 0.00 68 1021.6
20260509040405 61 295 0.0 0.0 0.00 0.00 0.00 68 1021.6
20260509035404 61 291 0.0 0.0 0.00 0.00 0.00 67 1021.3
20260509034905 61 222 0.0 1.0 0.00 0.00 0.00 67 1021.3
20260509034404 61 169 0.0 1.0 0.00 0.00 0.00 65 1021.2
20260509033904 61 315 0.0 1.0 0.00 0.00 0.00 65 1021.2
20260509033404 62 257 0.0 2.0 0.00 0.00 0.00 65 1021.2
20260509032905 62 261 0.0 2.0 0.00 0.00 0.00 64 1021.1
20260509032405 62 297 0.0 0.0 0.00 0.00 0.00 63 1021.1
20260509031404 63 297 0.0 0.0 0.00 0.00 0.00 62 1021.0
20260509030904 63 297 0.0 0.0 0.00 0.00 0.00 62 1020.9
20260509030404 63 293 0.0 0.0 0.00 0.00 0.00 60 1020.9
20260509025905 63 321 0.0 0.0 0.00 0.00 0.00 62 1020.9
20260509025404 63 332 0.0 0.0 0.00 0.00 0.00 60 1020.9
20260509024904 64 177 0.0 0.0 0.00 0.00 0.00 59 1020.8
20260509024404 64 206 0.0 0.0 0.00 0.00 0.00 57 1020.8
20260509023905 64 288 0.0 2.0 0.00 0.00 0.00 58 1020.8
20260509023405 64 281 0.0 2.0 0.00 0.00 0.00 56 1020.8
20260509022904 64 192 0.0 2.0 0.00 0.00 0.00 58 1020.8
20260509022404 65 121 0.0 2.0 0.00 0.00 0.00 57 1020.8
20260509021905 65 32 0.0 0.0 0.00 0.00 0.00 55 1020.8
20260509021404 65 137 0.0 0.0 0.00 0.00 0.00 57 1020.8
20260509020405 65 44 0.0 2.0 0.00 0.00 0.00 55 1020.8
20260509015904 66 12 0.0 2.0 0.00 0.00 0.00 55 1020.8
20260509015404 66 237 0.0 2.0 0.00 0.00 0.00 54 1020.8
20260509014904 66 239 0.0 0.0 0.00 0.00 0.00 53 1020.8
20260509014405 66 286 0.0 2.0 0.00 0.00 0.00 52 1020.8
20260509013904 66 213 0.0 3.0 0.00 0.00 0.00 52 1020.7
20260509013404 67 58 0.0 3.0 0.00 0.00 0.00 51 1020.7
20260509012904 67 218 1.0 3.0 0.00 0.00 0.00 52 1020.8
20260509012404 67 147 0.0 5.0 0.00 0.00 0.00 50 1020.8
20260509011904 68 98 0.0 5.0 0.00 0.00 0.00 50 1020.8
20260509011404 68 97 0.0 2.0 0.00 0.00 0.00 51 1020.9
20260509010905 68 348 0.0 5.0 0.00 0.00 0.00 53 1020.9
20260509010404 68 270 0.0 5.0 0.00 0.00 0.00 50 1020.9
20260509005904 68 212 0.0 2.0 0.00 0.00 0.00 51 1021.0
20260509004904 67 52 0.0 3.0 0.00 0.00 0.00 52 1021.0
20260509004404 67 1 0.0 3.0 0.00 0.00 0.00 52 1020.9
20260509003904 66 22 0.0 2.0 0.00 0.00 0.00 55 1021.0
20260509003404 66 49 0.0 6.0 0.00 0.00 0.00 51 1020.9
20260509002404 66 82 0.0 2.0 0.00 0.00 0.00 50 1021.1
20260509001904 67 230 0.0 1.0 0.00 0.00 0.00 50 1021.1
20260509001404 67 156 0.0 3.0 0.00 0.00 0.00 49 1021.0
20260509000904 68 357 1.0 3.0 0.00 0.00 0.00 47 1021.0
20260509000405 68 272 0.0 6.0 0.00 0.00 0.00 48 1021.0
20260508235904 68 49 0.0 6.0 0.00 0.00 0.00 48 1021.0
20260508235404 68 55 1.0 3.0 0.00 0.00 0.00 47 1021.1
20260508234905 68 102 0.0 3.0 0.00 0.00 0.00 47 1021.1
20260508234404 68 31 0.0 3.0 0.00 0.00 0.00 51 1021.2
20260508233904 68 38 1.0 3.0 0.00 0.00 0.00 47 1021.2
20260508233404 68 106 0.0 2.0 0.00 0.00 0.00 48 1021.2
20260508232905 68 25 0.0 2.0 0.00 0.00 0.00 45 1021.2
20260508232404 68 47 0.0 2.0 0.00 0.00 0.00 47 1021.1
20260508231904 68 325 0.0 5.0 0.00 0.00 0.00 47 1021.2
20260508231404 67 195 0.0 6.0 0.00 0.00 0.00 48 1021.2
20260508230905 67 278 0.0 6.0 0.00 0.00 0.00 49 1021.1
20260508225405 67 29 1.0 6.0 0.00 0.00 0.00 49 1021.2
20260508224904 67 345 0.0 3.0 0.00 0.00 0.00 47 1021.3
20260508224404 67 222 0.0 3.0 0.00 0.00 0.00 48 1021.4
20260508223405 67 9 0.0 3.0 0.00 0.00 0.00 49 1021.4
20260508222904 67 302 0.0 3.0 0.00 0.00 0.00 51 1021.3
20260508222404 66 268 0.0 5.0 0.00 0.00 0.00 49 1021.3
20260508221904 66 169 0.0 5.0 0.00 0.00 0.00 51 1021.4
20260508221405 66 184 0.0 5.0 0.00 0.00 0.00 50 1021.5
20260508220905 66 129 0.0 5.0 0.00 0.00 0.00 47 1021.5
20260508220405 65 343 0.0 3.0 0.00 0.00 0.00 54 1021.5
20260508215904 65 105 0.0 5.0 0.00 0.00 0.00 52 1021.5
20260508215404 65 23 1.0 5.0 0.00 0.00 0.00 53 1021.5
20260508213404 65 224 0.0 6.0 0.00 0.00 0.00 50 1021.5
20260508212904 64 340 0.0 6.0 0.00 0.00 0.00 55 1021.5
20260508212404 64 334 1.0 3.0 0.00 0.00 0.00 49 1021.5
20260508211404 64 236 0.0 7.0 0.00 0.00 0.00 50 1021.5
20260508210904 64 38 1.0 9.0 0.00 0.00 0.00 50 1021.6
20260508210405 64 216 1.0 9.0 0.00 0.00 0.00 49 1021.6
20260508205904 64 285 0.0 6.0 0.00 0.00 0.00 50 1021.7
20260508205404 64 178 1.0 7.0 0.00 0.00 0.00 52 1021.5
20260508204905 63 243 1.0 7.0 0.00 0.00 0.00 52 1021.5
20260508204404 63 54 0.0 7.0 0.00 0.00 0.00 54 1021.5
20260508203905 63 73 0.0 7.0 0.00 0.00 0.00 52 1021.6
20260508203404 63 132 2.0 7.0 0.00 0.00 0.00 52 1021.6
20260508202905 63 234 1.0 6.0 0.00 0.00 0.00 53 1021.6
20260508202405 63 68 0.0 6.0 0.00 0.00 0.00 56 1021.7
20260508201905 63 1 1.0 5.0 0.00 0.00 0.00 55 1021.6
20260508200904 62 267 1.0 6.0 0.00 0.00 0.00 58 1021.7
20260508200404 62 279 1.0 5.0 0.00 0.00 0.00 56 1021.8
20260508195904 61 27 0.0 3.0 0.00 0.00 0.00 61 1021.7
20260508195405 60 28 1.0 3.0 0.00 0.00 0.00 60 1021.8
20260508194905 60 237 0.0 1.0 0.00 0.00 0.00 60 1021.8
20260508193905 60 287 0.0 0.0 0.00 0.00 0.00 60 1021.7
20260508193404 60 301 0.0 1.0 0.00 0.00 0.00 61 1021.7
20260508192904 59 57 0.0 2.0 0.00 0.00 0.00 62 1021.9
20260508192405 59 192 0.0 2.0 0.00 0.00 0.00 60 1021.9
20260508191904 59 55 0.0 2.0 0.00 0.00 0.00 62 1022.1
20260508191404 59 209 0.0 3.0 0.00 0.00 0.00 65 1022.1
20260508190904 58 322 0.0 3.0 0.00 0.00 0.00 65 1022.1
20260508185905 58 29 0.0 0.0 0.00 0.00 0.00 65 1022.0
20260508184907 57 18 0.0 2.0 0.00 0.00 0.00 66 1022.1
20260508183903 57 267 0.0 2.0 0.00 0.00 0.00 65 1022.0
20260508182903 56 309 0.0 0.0 0.00 0.00 0.00 66 1022.0
20260508182404 56 270 0.0 0.0 0.00 0.00 0.00 68 1021.9
20260508181903 56 296 0.0 1.0 0.00 0.00 0.00 69 1021.9
20260508181404 56 240 0.0 2.0 0.00 0.00 0.00 67 1021.8
20260508180904 56 25 0.0 2.0 0.00 0.00 0.00 68 1021.8
20260508180404 56 221 0.0 0.0 0.00 0.00 0.00 68 1021.9
20260508175904 57 251 0.0 0.0 0.00 0.00 0.00 67 1021.9
20260508175403 57 73 0.0 3.0 0.00 0.00 0.00 70 1021.8
20260508174904 56 174 0.0 3.0 0.00 0.00 0.00 73 1021.7
20260508174404 55 2 0.0 2.0 0.00 0.00 0.00 70 1021.7
20260508173903 55 92 1.0 2.0 0.00 0.00 0.00 70 1021.6
20260508173404 54 234 0.0 2.0 0.00 0.00 0.00 72 1021.5
20260508172904 55 123 0.0 2.0 0.00 0.00 0.00 71 1021.5
20260508172403 55 225 0.0 3.0 0.00 0.00 0.00 70 1021.4
20260508171903 55 269 0.0 3.0 0.00 0.00 0.00 72 1021.4
20260508170903 54 72 0.0 2.0 0.00 0.00 0.00 73 1021.1
20260508165404 54 96 1.0 5.0 0.00 0.00 0.00 74 1020.8
20260508164904 54 121 0.0 3.0 0.00 0.00 0.00 77 1021.0
20260508164404 53 234 1.0 5.0 0.00 0.00 0.00 75 1021.1
20260508163404 53 95 1.0 3.0 0.00 0.00 0.00 76 1021.1
20260508162903 53 73 1.0 5.0 0.00 0.00 0.00 76 1020.8
20260508161903 53 74 2.0 7.0 0.00 0.00 0.00 80 1020.8
20260508161404 53 108 2.0 7.0 0.00 0.00 0.00 80 1020.8
20260508160904 53 82 2.0 7.0 0.00 0.00 0.00 80 1020.8
20260508160404 52 77 3.0 6.0 0.00 0.00 0.00 80 1020.8
20260508155904 52 68 2.0 6.0 0.00 0.00 0.00 80 1020.5
20260508155403 52 90 2.0 8.0 0.00 0.00 0.00 80 1020.5
20260508154904 52 120 4.0 8.0 0.00 0.00 0.00 78 1020.4
20260508153904 52 23 1.0 3.0 0.00 0.00 0.00 77 1020.6
20260508152904 52 68 2.0 5.0 0.00 0.00 0.00 78 1020.8
20260508152403 51 17 0.0 3.0 0.00 0.00 0.00 80 1020.8
20260508151903 51 46 0.0 3.0 0.00 0.00 0.00 81 1020.8
20260508151404 51 54 1.0 3.0 0.00 0.00 0.00 81 1020.9
20260508150903 50 33 0.0 3.0 0.00 0.00 0.00 83 1020.9
20260508145404 49 34 0.0 1.0 0.00 0.00 0.00 88 1021.1
20260508144903 48 60 0.0 0.0 0.00 0.00 0.00 90 1021.1
20260508144404 47 51 0.0 0.0 0.00 0.00 0.00 92 1021.1
20260508143903 46 51 0.0 0.0 0.00 0.00 0.00 92 1021.1
20260508143404 46 51 0.0 0.0 0.00 0.00 0.00 92 1021.1
20260508142903 46 51 0.0 0.0 0.00 0.00 0.00 93 1021.0
20260508142403 45 51 0.0 0.0 0.00 0.00 0.00 93 1020.9
20260508141904 45 51 0.0 0.0 0.00 0.00 0.00 93 1020.7
20260508141404 44 51 0.0 0.0 0.00 0.00 0.00 92 1020.6
20260508140904 44 51 0.0 0.0 0.00 0.00 0.00 92 1020.6
20260508140404 44 51 0.0 0.0 0.00 0.00 0.00 92 1020.4
20260508135403 44 51 0.0 0.0 0.00 0.00 0.00 92 1020.2
20260508134903 44 51 0.0 0.0 0.00 0.00 0.00 92 1020.0
20260508134404 44 51 0.0 0.0 0.00 0.00 0.00 92 1019.8
20260508133903 44 51 0.0 0.0 0.00 0.00 0.00 92 1019.7
20260508132904 44 51 0.0 0.0 0.00 0.00 0.00 91 1019.6
20260508132404 44 51 0.0 0.0 0.00 0.00 0.00 91 1019.6
20260508131903 44 51 0.0 0.0 0.00 0.00 0.00 91 1019.4
20260508131404 44 51 0.0 0.0 0.00 0.00 0.00 91 1019.3
20260508130904 45 51 0.0 0.0 0.00 0.00 0.00 91 1019.2
20260508130404 45 51 0.0 0.0 0.00 0.00 0.00 91 1019.1
20260508125904 45 51 0.0 0.0 0.00 0.00 0.00 91 1019.1
20260508125403 45 51 0.0 0.0 0.00 0.00 0.00 91 1019.1
20260508124904 45 51 0.0 0.0 0.00 0.00 0.00 91 1019.0
20260508124403 45 51 0.0 0.0 0.00 0.00 0.00 91 1018.9
20260508123404 45 51 0.0 0.0 0.00 0.00 0.00 91 1018.8
20260508122903 45 51 0.0 0.0 0.00 0.00 0.00 91 1018.8
20260508122404 45 51 0.0 0.0 0.00 0.00 0.00 91 1018.8
20260508121903 45 51 0.0 0.0 0.00 0.00 0.00 91 1018.8
20260508121404 45 51 0.0 0.0 0.00 0.00 0.00 91 1018.7
20260508120904 45 51 0.0 0.0 0.00 0.00 0.00 91 1018.7
20260508120403 45 51 0.0 0.0 0.00 0.00 0.00 91 1018.6
20260508115903 45 51 0.0 0.0 0.00 0.00 0.00 91 1018.6
20260508115404 45 51 0.0 0.0 0.00 0.00 0.00 91 1018.4
20260508114904 45 51 0.0 0.0 0.00 0.00 0.00 91 1018.4
20260508114403 44 51 0.0 0.0 0.00 0.00 0.00 91 1018.4
20260508113905 44 51 0.0 0.0 0.00 0.00 0.00 91 1018.3
20260508113404 44 51 0.0 0.0 0.00 0.00 0.00 91 1018.3
20260508112903 44 51 0.0 0.0 0.00 0.00 0.00 91 1018.1
20260508112404 44 51 0.0 0.0 0.00 0.00 0.00 91 1018.1
20260508111904 44 51 0.0 0.0 0.00 0.00 0.00 91 1018.2
20260508111404 44 51 0.0 0.0 0.00 0.00 0.00 91 1018.0
20260508110404 44 51 0.0 0.0 0.00 0.00 0.00 91 1017.9
20260508105903 44 51 0.0 0.0 0.00 0.00 0.00 91 1017.9
20260508105404 44 51 0.0 0.0 0.00 0.00 0.00 91 1017.9
20260508104904 44 51 0.0 0.0 0.00 0.00 0.00 90 1017.8
20260508104404 45 51 0.0 0.0 0.00 0.00 0.00 90 1017.7
20260508103903 45 51 0.0 0.0 0.00 0.00 0.00 91 1017.7
20260508103403 45 51 0.0 0.0 0.00 0.00 0.00 91 1017.6
20260508102903 45 51 0.0 0.0 0.00 0.00 0.00 91 1017.6
20260508102404 45 51 0.0 0.0 0.00 0.00 0.00 90 1017.5
20260508101904 45 40 0.0 0.0 0.00 0.00 0.00 90 1017.5
20260508101403 45 40 0.0 0.0 0.00 0.00 0.00 90 1017.5
20260508100903 45 40 0.0 0.0 0.00 0.00 0.00 90 1017.4
20260508100403 45 40 0.0 0.0 0.00 0.00 0.00 90 1017.3
20260508095904 45 40 0.0 0.0 0.00 0.00 0.00 90 1017.2
20260508094904 45 40 0.0 0.0 0.00 0.00 0.00 90 1017.3
20260508093904 45 40 0.0 0.0 0.00 0.00 0.00 90 1017.2
20260508093404 45 40 0.0 0.0 0.00 0.00 0.00 90 1017.2
20260508092904 45 40 0.0 0.0 0.00 0.00 0.00 90 1017.1
20260508091903 45 40 0.0 0.0 0.00 0.00 0.00 90 1017.0
20260508091404 45 40 0.0 0.0 0.00 0.00 0.00 89 1017.0
20260508090903 45 40 0.0 0.0 0.00 0.00 0.00 89 1017.0
20260508090404 45 40 0.0 0.0 0.00 0.00 0.00 89 1017.0
20260508085903 45 40 0.0 0.0 0.00 0.00 0.00 89 1016.9
20260508085403 45 40 0.0 0.0 0.00 0.00 0.00 90 1016.9
20260508084904 45 40 0.0 0.0 0.00 0.00 0.00 89 1016.8
20260508084403 45 40 0.0 0.0 0.00 0.00 0.00 89 1016.8
20260508083403 46 40 0.0 0.0 0.00 0.00 0.00 88 1016.8
20260508082904 46 40 0.0 0.0 0.00 0.00 0.00 89 1016.8
20260508082404 46 40 0.0 0.0 0.00 0.00 0.00 88 1016.7
20260508081903 46 40 0.0 0.0 0.00 0.00 0.00 88 1016.7
20260508080904 46 40 0.0 0.0 0.00 0.00 0.00 88 1016.6
20260508080404 46 40 0.0 0.0 0.00 0.00 0.00 88 1016.6
20260508075903 46 40 0.0 0.0 0.00 0.00 0.00 88 1016.5
20260508075403 46 40 0.0 0.0 0.00 0.00 0.00 88 1016.6
20260508074903 46 40 0.0 0.0 0.00 0.00 0.00 88 1016.6
20260508074403 46 40 0.0 0.0 0.00 0.00 0.00 87 1016.6
20260508073402 47 40 0.0 0.0 0.00 0.00 0.00 87 1016.5
20260508072902 47 40 0.0 0.0 0.00 0.00 0.00 87 1016.6